Year,Month,Day,Hour,Minute,Value (Times are PST for temperature in C)
2014,04,13,00,00,13.20
2014,04,13,00,01,13.20
2014,04,13,00,02,13.20
2014,04,13,00,03,13.10
2014,04,13,00,04,13.10
2014,04,13,00,05,13.10
2014,04,13,00,06,13.10
2014,04,13,00,07,13.10
2014,04,13,00,08,13.00
2014,04,13,00,09,13.00
2014,04,13,00,10,13.00
2014,04,13,00,11,12.90
2014,04,13,00,12,12.90
2014,04,13,00,13,12.90
2014,04,13,00,14,12.80
2014,04,13,00,15,12.80
2014,04,13,00,16,12.70
2014,04,13,00,17,12.70
2014,04,13,00,18,12.60
2014,04,13,00,19,12.50
2014,04,13,00,20,12.40
2014,04,13,00,21,12.30
2014,04,13,00,22,12.30
2014,04,13,00,23,12.20
2014,04,13,00,24,12.00
2014,04,13,00,25,11.90
2014,04,13,00,26,11.70
2014,04,13,00,27,11.50
2014,04,13,00,28,11.10
2014,04,13,00,29,10.80
2014,04,13,00,30,10.60
2014,04,13,00,31,10.50
2014,04,13,00,32,10.30
2014,04,13,00,33,10.20
2014,04,13,00,34,10.10
2014,04,13,00,35,10.00
2014,04,13,00,36,9.90
2014,04,13,00,37,9.80
2014,04,13,00,38,9.70
2014,04,13,00,39,9.60
2014,04,13,00,40,9.50
2014,04,13,00,41,9.50
2014,04,13,00,42,9.40
2014,04,13,00,43,9.40
2014,04,13,00,44,9.40
2014,04,13,00,45,9.40
2014,04,13,00,46,9.40
2014,04,13,00,47,9.40
2014,04,13,00,48,9.30
2014,04,13,00,49,9.30
2014,04,13,00,50,9.20
2014,04,13,00,51,9.20
2014,04,13,00,52,9.30
2014,04,13,00,53,9.20
2014,04,13,00,54,9.00
2014,04,13,00,55,8.80
2014,04,13,00,56,8.80
2014,04,13,00,57,8.70
2014,04,13,00,58,8.60
2014,04,13,00,59,8.60
2014,04,13,01,00,8.50
2014,04,13,01,01,8.50
2014,04,13,01,02,8.40
2014,04,13,01,03,8.30
2014,04,13,01,04,8.30
2014,04,13,01,05,8.20
2014,04,13,01,06,8.20
2014,04,13,01,07,8.10
2014,04,13,01,08,8.00
2014,04,13,01,09,8.00
2014,04,13,01,10,7.90
2014,04,13,01,11,7.80
2014,04,13,01,12,7.80
2014,04,13,01,13,7.80
2014,04,13,01,14,7.80
2014,04,13,01,15,7.80
2014,04,13,01,16,7.80
2014,04,13,01,17,7.80
2014,04,13,01,18,7.80
2014,04,13,01,19,7.80
2014,04,13,01,20,7.80
2014,04,13,01,21,7.80
2014,04,13,01,22,7.70
2014,04,13,01,23,7.70
2014,04,13,01,24,7.70
2014,04,13,01,25,7.60
2014,04,13,01,26,7.60
2014,04,13,01,27,7.50
2014,04,13,01,28,7.50
2014,04,13,01,29,7.50
2014,04,13,01,30,7.50
2014,04,13,01,31,7.50
2014,04,13,01,32,7.50
2014,04,13,01,33,7.40
2014,04,13,01,34,7.40
2014,04,13,01,35,7.40
2014,04,13,01,36,7.40
2014,04,13,01,37,7.30
2014,04,13,01,38,7.30
2014,04,13,01,39,7.20
2014,04,13,01,40,7.20
2014,04,13,01,41,7.20
2014,04,13,01,42,7.20
2014,04,13,01,43,7.20
2014,04,13,01,44,7.20
2014,04,13,01,45,7.20
2014,04,13,01,46,7.20
2014,04,13,01,47,7.20
2014,04,13,01,48,7.20
2014,04,13,01,49,7.20
2014,04,13,01,50,7.20
2014,04,13,01,51,7.20
2014,04,13,01,52,7.20
2014,04,13,01,53,7.20
2014,04,13,01,54,7.10
2014,04,13,01,55,7.00
2014,04,13,01,56,6.90
2014,04,13,01,57,6.80
2014,04,13,01,58,6.80
2014,04,13,01,59,6.80
2014,04,13,02,00,6.70
2014,04,13,02,01,6.70
2014,04,13,02,02,6.70
2014,04,13,02,03,6.70
2014,04,13,02,04,6.70
2014,04,13,02,05,6.80
2014,04,13,02,06,6.90
2014,04,13,02,07,7.00
2014,04,13,02,08,7.10
2014,04,13,02,09,7.30
2014,04,13,02,10,7.40
2014,04,13,02,11,7.50
2014,04,13,02,12,7.50
2014,04,13,02,13,7.40
2014,04,13,02,14,7.40
2014,04,13,02,15,7.40
2014,04,13,02,16,7.30
2014,04,13,02,17,7.30
2014,04,13,02,18,7.20
2014,04,13,02,19,7.10
2014,04,13,02,20,7.10
2014,04,13,02,21,7.00
2014,04,13,02,22,6.90
2014,04,13,02,23,6.90
2014,04,13,02,24,6.90
2014,04,13,02,25,6.90
2014,04,13,02,26,7.00
2014,04,13,02,27,7.00
2014,04,13,02,28,7.00
2014,04,13,02,29,6.90
2014,04,13,02,30,6.80
2014,04,13,02,31,6.70
2014,04,13,02,32,6.60
2014,04,13,02,33,6.50
2014,04,13,02,34,6.60
2014,04,13,02,35,6.60
2014,04,13,02,36,6.60
2014,04,13,02,37,6.60
2014,04,13,02,38,6.60
2014,04,13,02,39,6.60
2014,04,13,02,40,6.60
2014,04,13,02,41,6.60
2014,04,13,02,42,6.60
2014,04,13,02,43,6.60
2014,04,13,02,44,6.60
2014,04,13,02,45,6.60
2014,04,13,02,46,6.60
2014,04,13,02,47,6.60
2014,04,13,02,48,6.60
2014,04,13,02,49,6.50
2014,04,13,02,50,6.50
2014,04,13,02,51,6.50
2014,04,13,02,52,6.40
2014,04,13,02,53,6.40
2014,04,13,02,54,6.40
2014,04,13,02,55,6.50
2014,04,13,02,56,6.50
2014,04,13,02,57,6.50
2014,04,13,02,58,6.50
2014,04,13,02,59,6.50
2014,04,13,03,00,6.50
2014,04,13,03,01,6.50
2014,04,13,03,02,6.50
2014,04,13,03,03,6.40
2014,04,13,03,04,6.40
2014,04,13,03,05,6.40
2014,04,13,03,06,6.40
2014,04,13,03,07,6.30
2014,04,13,03,08,6.30
2014,04,13,03,09,6.30
2014,04,13,03,10,6.30
2014,04,13,03,11,6.30
2014,04,13,03,12,6.40
2014,04,13,03,13,6.50
2014,04,13,03,14,6.50
2014,04,13,03,15,6.60
2014,04,13,03,16,6.60
2014,04,13,03,17,6.60
2014,04,13,03,18,6.60
2014,04,13,03,19,6.50
2014,04,13,03,20,6.40
2014,04,13,03,21,6.40
2014,04,13,03,22,6.30
2014,04,13,03,23,6.30
2014,04,13,03,24,6.20
2014,04,13,03,25,6.10
2014,04,13,03,26,6.10
2014,04,13,03,27,6.10
2014,04,13,03,28,6.10
2014,04,13,03,29,6.20
2014,04,13,03,30,6.20
2014,04,13,03,31,6.30
2014,04,13,03,32,6.30
2014,04,13,03,33,6.30
2014,04,13,03,34,6.30
2014,04,13,03,35,6.30
2014,04,13,03,36,6.30
2014,04,13,03,37,6.30
2014,04,13,03,38,6.20
2014,04,13,03,39,6.20
2014,04,13,03,40,6.20
2014,04,13,03,41,6.20
2014,04,13,03,42,6.20
2014,04,13,03,43,6.20
2014,04,13,03,44,6.20
2014,04,13,03,45,6.20
2014,04,13,03,46,6.20
2014,04,13,03,47,6.20
2014,04,13,03,48,6.20
2014,04,13,03,49,6.20
2014,04,13,03,50,6.20
2014,04,13,03,51,6.20
2014,04,13,03,52,6.20
2014,04,13,03,53,6.20
2014,04,13,03,54,6.20
2014,04,13,03,55,6.20
2014,04,13,03,56,6.20
2014,04,13,03,57,6.20
2014,04,13,03,58,6.20
2014,04,13,03,59,6.20
2014,04,13,04,00,6.10
2014,04,13,04,01,6.10
2014,04,13,04,02,6.20
2014,04,13,04,03,6.20
2014,04,13,04,04,6.20
2014,04,13,04,05,6.20
2014,04,13,04,06,6.20
2014,04,13,04,07,6.10
2014,04,13,04,08,6.10
2014,04,13,04,09,6.10
2014,04,13,04,10,6.10
2014,04,13,04,11,6.10
2014,04,13,04,12,6.10
2014,04,13,04,13,6.20
2014,04,13,04,14,6.20
2014,04,13,04,15,6.20
2014,04,13,04,16,6.20
2014,04,13,04,17,6.20
2014,04,13,04,18,6.20
2014,04,13,04,19,6.20
2014,04,13,04,20,6.20
2014,04,13,04,21,6.20
2014,04,13,04,22,6.20
2014,04,13,04,23,6.10
2014,04,13,04,24,6.10
2014,04,13,04,25,6.10
2014,04,13,04,26,6.10
2014,04,13,04,27,6.10
2014,04,13,04,28,6.10
2014,04,13,04,29,6.10
2014,04,13,04,30,6.10
2014,04,13,04,31,6.10
2014,04,13,04,32,6.10
2014,04,13,04,33,6.10
2014,04,13,04,34,6.10
2014,04,13,04,35,6.10
2014,04,13,04,36,6.00
2014,04,13,04,37,6.00
2014,04,13,04,38,6.00
2014,04,13,04,39,5.90
2014,04,13,04,40,5.80
2014,04,13,04,41,5.80
2014,04,13,04,42,5.70
2014,04,13,04,43,5.70
2014,04,13,04,44,5.70
2014,04,13,04,45,5.70
2014,04,13,04,46,5.70
2014,04,13,04,47,5.60
2014,04,13,04,48,5.60
2014,04,13,04,49,5.50
2014,04,13,04,50,5.50
2014,04,13,04,51,5.60
2014,04,13,04,52,5.60
2014,04,13,04,53,5.70
2014,04,13,04,54,5.70
2014,04,13,04,55,5.70
2014,04,13,04,56,5.70
2014,04,13,04,57,5.70
2014,04,13,04,58,5.70
2014,04,13,04,59,5.70
2014,04,13,05,00,5.70
2014,04,13,05,01,5.70
2014,04,13,05,02,5.80
2014,04,13,05,03,5.80
2014,04,13,05,04,5.80
2014,04,13,05,05,5.80
2014,04,13,05,06,5.70
2014,04,13,05,07,5.70
2014,04,13,05,08,5.70
2014,04,13,05,09,5.70
2014,04,13,05,10,5.70
2014,04,13,05,11,5.70
2014,04,13,05,12,5.70
2014,04,13,05,13,5.70
2014,04,13,05,14,5.70
2014,04,13,05,15,5.70
2014,04,13,05,16,5.70
2014,04,13,05,17,5.70
2014,04,13,05,18,5.70
2014,04,13,05,19,5.70
2014,04,13,05,20,5.70
2014,04,13,05,21,5.70
2014,04,13,05,22,5.70
2014,04,13,05,23,5.70
2014,04,13,05,24,5.70
2014,04,13,05,25,5.60
2014,04,13,05,26,5.60
2014,04,13,05,27,5.70
2014,04,13,05,28,5.70
2014,04,13,05,29,5.70
2014,04,13,05,30,5.70
2014,04,13,05,31,5.70
2014,04,13,05,32,5.70
2014,04,13,05,33,5.70
2014,04,13,05,34,5.70
2014,04,13,05,35,5.70
2014,04,13,05,36,5.70
2014,04,13,05,37,5.70
2014,04,13,05,38,5.80
2014,04,13,05,39,5.80
2014,04,13,05,40,5.80
2014,04,13,05,41,5.70
2014,04,13,05,42,5.70
2014,04,13,05,43,5.70
2014,04,13,05,44,5.70
2014,04,13,05,45,5.70
2014,04,13,05,46,5.70
2014,04,13,05,47,5.70
2014,04,13,05,48,5.70
2014,04,13,05,49,5.70
2014,04,13,05,50,5.70
2014,04,13,05,51,5.70
2014,04,13,05,52,5.70
2014,04,13,05,53,5.70
2014,04,13,05,54,5.70
2014,04,13,05,55,5.60
2014,04,13,05,56,5.60
2014,04,13,05,57,5.60
2014,04,13,05,58,5.60
2014,04,13,05,59,5.60
2014,04,13,06,00,5.50
2014,04,13,06,01,5.50
2014,04,13,06,02,5.50
2014,04,13,06,03,5.50
2014,04,13,06,04,5.50
2014,04,13,06,05,5.50
2014,04,13,06,06,5.40
2014,04,13,06,07,5.40
2014,04,13,06,08,5.40
2014,04,13,06,09,5.40
2014,04,13,06,10,5.40
2014,04,13,06,11,5.50
2014,04,13,06,12,5.40
2014,04,13,06,13,5.40
2014,04,13,06,14,5.40
2014,04,13,06,15,5.40
2014,04,13,06,16,5.40
2014,04,13,06,17,5.40
2014,04,13,06,18,5.30
2014,04,13,06,19,5.30
2014,04,13,06,20,5.30
2014,04,13,06,21,5.20
2014,04,13,06,22,5.20
2014,04,13,06,23,5.20
2014,04,13,06,24,5.20
2014,04,13,06,25,5.10
2014,04,13,06,26,5.10
2014,04,13,06,27,5.10
2014,04,13,06,28,5.00
2014,04,13,06,29,5.00
2014,04,13,06,30,4.90
2014,04,13,06,31,4.90
2014,04,13,06,32,4.80
2014,04,13,06,33,4.80
2014,04,13,06,34,4.80
2014,04,13,06,35,4.70
2014,04,13,06,36,4.70
2014,04,13,06,37,4.70
2014,04,13,06,38,4.70
2014,04,13,06,39,4.70
2014,04,13,06,40,4.60
2014,04,13,06,41,4.70
2014,04,13,06,42,4.70
2014,04,13,06,43,4.70
2014,04,13,06,44,4.80
2014,04,13,06,45,4.90
2014,04,13,06,46,5.00
2014,04,13,06,47,5.00
2014,04,13,06,48,5.00
2014,04,13,06,49,5.00
2014,04,13,06,50,5.00
2014,04,13,06,51,5.00
2014,04,13,06,52,5.10
2014,04,13,06,53,5.10
2014,04,13,06,54,5.10
2014,04,13,06,55,5.10
2014,04,13,06,56,5.00
2014,04,13,06,57,5.00
2014,04,13,06,58,4.90
2014,04,13,06,59,4.90
2014,04,13,07,00,4.80
2014,04,13,07,01,4.80
2014,04,13,07,02,4.80
2014,04,13,07,03,4.80
2014,04,13,07,04,4.80
2014,04,13,07,05,4.80
2014,04,13,07,06,4.80
2014,04,13,07,07,4.80
2014,04,13,07,08,4.80
2014,04,13,07,09,4.80
2014,04,13,07,10,4.80
2014,04,13,07,11,4.90
2014,04,13,07,12,4.90
2014,04,13,07,13,5.00
2014,04,13,07,14,5.10
2014,04,13,07,15,5.10
2014,04,13,07,16,5.20
2014,04,13,07,17,5.20
2014,04,13,07,18,5.30
2014,04,13,07,19,5.30
2014,04,13,07,20,5.40
2014,04,13,07,21,5.40
2014,04,13,07,22,5.50
2014,04,13,07,23,5.60
2014,04,13,07,24,5.60
2014,04,13,07,25,5.70
2014,04,13,07,26,5.70
2014,04,13,07,27,5.80
2014,04,13,07,28,5.80
2014,04,13,07,29,5.90
2014,04,13,07,30,6.00
2014,04,13,07,31,6.10
2014,04,13,07,32,6.20
2014,04,13,07,33,6.20
2014,04,13,07,34,6.30
2014,04,13,07,35,6.30
2014,04,13,07,36,6.40
2014,04,13,07,37,6.50
2014,04,13,07,38,6.50
2014,04,13,07,39,6.60
2014,04,13,07,40,6.60
2014,04,13,07,41,6.60
2014,04,13,07,42,6.70
2014,04,13,07,43,6.70
2014,04,13,07,44,6.70
2014,04,13,07,45,6.70
2014,04,13,07,46,6.70
2014,04,13,07,47,6.70
2014,04,13,07,48,6.70
2014,04,13,07,49,6.70
2014,04,13,07,50,6.70
2014,04,13,07,51,6.70
2014,04,13,07,52,6.70
2014,04,13,07,53,6.70
2014,04,13,07,54,6.70
2014,04,13,07,55,6.70
2014,04,13,07,56,6.70
2014,04,13,07,57,6.70
2014,04,13,07,58,6.70
2014,04,13,07,59,6.70
2014,04,13,08,00,6.80
2014,04,13,08,01,6.80
2014,04,13,08,02,6.80
2014,04,13,08,03,6.80
2014,04,13,08,04,6.90
2014,04,13,08,05,6.90
2014,04,13,08,06,6.90
2014,04,13,08,07,7.00
2014,04,13,08,08,7.10
2014,04,13,08,09,7.10
2014,04,13,08,10,7.20
2014,04,13,08,11,7.20
2014,04,13,08,12,7.20
2014,04,13,08,13,7.30
2014,04,13,08,14,7.30
2014,04,13,08,15,7.40
2014,04,13,08,16,7.50
2014,04,13,08,17,7.50
2014,04,13,08,18,7.60
2014,04,13,08,19,7.70
2014,04,13,08,20,7.80
2014,04,13,08,21,7.80
2014,04,13,08,22,7.90
2014,04,13,08,23,8.00
2014,04,13,08,24,8.10
2014,04,13,08,25,8.20
2014,04,13,08,26,8.20
2014,04,13,08,27,8.30
2014,04,13,08,28,8.40
2014,04,13,08,29,8.50
2014,04,13,08,30,8.60
2014,04,13,08,31,8.70
2014,04,13,08,32,8.80
2014,04,13,08,33,8.90
2014,04,13,08,34,9.00
2014,04,13,08,35,9.10
2014,04,13,08,36,9.20
2014,04,13,08,37,9.40
2014,04,13,08,38,9.60
2014,04,13,08,39,9.80
2014,04,13,08,40,9.90
2014,04,13,08,41,10.10
2014,04,13,08,42,10.20
2014,04,13,08,43,10.50
2014,04,13,08,44,10.70
2014,04,13,08,45,10.80
2014,04,13,08,46,11.00
2014,04,13,08,47,11.10
2014,04,13,08,48,11.20
2014,04,13,08,49,11.20
2014,04,13,08,50,11.30
2014,04,13,08,51,11.30
2014,04,13,08,52,11.40
2014,04,13,08,53,11.40
2014,04,13,08,54,11.40
2014,04,13,08,55,11.30
2014,04,13,08,56,11.30
2014,04,13,08,57,11.30
2014,04,13,08,58,11.20
2014,04,13,08,59,11.20
2014,04,13,09,00,11.30
2014,04,13,09,01,11.30
2014,04,13,09,02,11.30
2014,04,13,09,03,11.30
2014,04,13,09,04,11.40
2014,04,13,09,05,11.50
2014,04,13,09,06,11.50
2014,04,13,09,07,11.60
2014,04,13,09,08,11.70
2014,04,13,09,09,11.80
2014,04,13,09,10,11.90
2014,04,13,09,11,12.00
2014,04,13,09,12,12.10
2014,04,13,09,13,12.20
2014,04,13,09,14,12.30
2014,04,13,09,15,12.30
2014,04,13,09,16,12.20
2014,04,13,09,17,12.00
2014,04,13,09,18,11.80
2014,04,13,09,19,11.70
2014,04,13,09,20,11.60
2014,04,13,09,21,11.60
2014,04,13,09,22,11.60
2014,04,13,09,23,11.60
2014,04,13,09,24,11.60
2014,04,13,09,25,11.60
2014,04,13,09,26,11.70
2014,04,13,09,27,11.70
2014,04,13,09,28,11.70
2014,04,13,09,29,11.80
2014,04,13,09,30,11.80
2014,04,13,09,31,11.80
2014,04,13,09,32,11.80
2014,04,13,09,33,11.80
2014,04,13,09,34,11.80
2014,04,13,09,35,11.80
2014,04,13,09,36,11.80
2014,04,13,09,37,11.80
2014,04,13,09,38,11.80
2014,04,13,09,39,11.80
2014,04,13,09,40,11.80
2014,04,13,09,41,11.70
2014,04,13,09,42,11.70
2014,04,13,09,43,11.80
2014,04,13,09,44,11.80
2014,04,13,09,45,11.80
2014,04,13,09,46,11.80
2014,04,13,09,47,11.80
2014,04,13,09,48,11.80
2014,04,13,09,49,11.80
2014,04,13,09,50,11.80
2014,04,13,09,51,11.80
2014,04,13,09,52,11.70
2014,04,13,09,53,11.70
2014,04,13,09,54,11.70
2014,04,13,09,55,11.70
2014,04,13,09,56,11.70
2014,04,13,09,57,11.70
2014,04,13,09,58,11.70
2014,04,13,09,59,11.70
2014,04,13,10,00,11.80
2014,04,13,10,01,11.90
2014,04,13,10,02,12.00
2014,04,13,10,03,12.20
2014,04,13,10,04,12.30
2014,04,13,10,05,12.30
2014,04,13,10,06,12.40
2014,04,13,10,07,12.50
2014,04,13,10,08,12.70
2014,04,13,10,09,12.80
2014,04,13,10,10,12.90
2014,04,13,10,11,12.90
2014,04,13,10,12,12.90
2014,04,13,10,13,12.90
2014,04,13,10,14,13.00
2014,04,13,10,15,13.00
2014,04,13,10,16,13.10
2014,04,13,10,17,13.20
2014,04,13,10,18,13.20
2014,04,13,10,19,13.30
2014,04,13,10,20,13.30
2014,04,13,10,21,13.40
2014,04,13,10,22,13.40
2014,04,13,10,23,13.30
2014,04,13,10,24,13.20
2014,04,13,10,25,13.10
2014,04,13,10,26,13.00
2014,04,13,10,27,13.00
2014,04,13,10,28,13.10
2014,04,13,10,29,13.10
2014,04,13,10,30,13.10
2014,04,13,10,31,13.00
2014,04,13,10,32,13.10
2014,04,13,10,33,13.10
2014,04,13,10,34,13.20
2014,04,13,10,35,13.30
2014,04,13,10,36,13.40
2014,04,13,10,37,13.40
2014,04,13,10,38,13.40
2014,04,13,10,39,13.40
2014,04,13,10,40,13.40
2014,04,13,10,41,13.40
2014,04,13,10,42,13.30
2014,04,13,10,43,13.30
2014,04,13,10,44,13.20
2014,04,13,10,45,13.10
2014,04,13,10,46,13.10
2014,04,13,10,47,13.10
2014,04,13,10,48,13.20
2014,04,13,10,49,13.30
2014,04,13,10,50,13.40
2014,04,13,10,51,13.40
2014,04,13,10,52,13.50
2014,04,13,10,53,13.50
2014,04,13,10,54,13.50
2014,04,13,10,55,13.50
2014,04,13,10,56,13.50
2014,04,13,10,57,13.40
2014,04,13,10,58,13.30
2014,04,13,10,59,13.20
2014,04,13,11,00,13.10
2014,04,13,11,01,13.00
2014,04,13,11,02,13.00
2014,04,13,11,03,12.90
2014,04,13,11,04,12.90
2014,04,13,11,05,13.00
2014,04,13,11,06,13.00
2014,04,13,11,07,13.10
2014,04,13,11,08,13.20
2014,04,13,11,09,13.30
2014,04,13,11,10,13.40
2014,04,13,11,11,13.40
2014,04,13,11,12,13.30
2014,04,13,11,13,13.40
2014,04,13,11,14,13.40
2014,04,13,11,15,13.50
2014,04,13,11,16,13.40
2014,04,13,11,17,13.30
2014,04,13,11,18,13.00
2014,04,13,11,19,12.90
2014,04,13,11,20,12.80
2014,04,13,11,21,12.90
2014,04,13,11,22,12.90
2014,04,13,11,23,12.90
2014,04,13,11,24,12.90
2014,04,13,11,25,12.80
2014,04,13,11,26,12.70
2014,04,13,11,27,12.70
2014,04,13,11,28,12.80
2014,04,13,11,29,12.80
2014,04,13,11,30,12.80
2014,04,13,11,31,12.70
2014,04,13,11,32,12.80
2014,04,13,11,33,12.80
2014,04,13,11,34,12.70
2014,04,13,11,35,12.60
2014,04,13,11,36,12.80
2014,04,13,11,37,12.90
2014,04,13,11,38,12.90
2014,04,13,11,39,12.90
2014,04,13,11,40,12.80
2014,04,13,11,41,12.70
2014,04,13,11,42,12.60
2014,04,13,11,43,12.60
2014,04,13,11,44,12.50
2014,04,13,11,45,12.50
2014,04,13,11,46,12.60
2014,04,13,11,47,12.70
2014,04,13,11,48,12.80
2014,04,13,11,49,12.90
2014,04,13,11,50,12.90
2014,04,13,11,51,12.80
2014,04,13,11,52,12.80
2014,04,13,11,53,12.80
2014,04,13,11,54,12.80
2014,04,13,11,55,12.70
2014,04,13,11,56,12.70
2014,04,13,11,57,12.80
2014,04,13,11,58,12.80
2014,04,13,11,59,12.80
2014,04,13,12,00,12.80
2014,04,13,12,01,12.80
2014,04,13,12,02,12.90
2014,04,13,12,03,13.00
2014,04,13,12,04,13.10
2014,04,13,12,05,13.10
2014,04,13,12,06,13.00
2014,04,13,12,07,12.90
2014,04,13,12,08,12.80
2014,04,13,12,09,12.80
2014,04,13,12,10,12.80
2014,04,13,12,11,12.80
2014,04,13,12,12,12.90
2014,04,13,12,13,12.90
2014,04,13,12,14,12.90
2014,04,13,12,15,12.90
2014,04,13,12,16,12.90
2014,04,13,12,17,13.00
2014,04,13,12,18,13.20
2014,04,13,12,19,13.30
2014,04,13,12,20,13.30
2014,04,13,12,21,13.20
2014,04,13,12,22,13.20
2014,04,13,12,23,13.20
2014,04,13,12,24,13.20
2014,04,13,12,25,13.30
2014,04,13,12,26,13.40
2014,04,13,12,27,13.40
2014,04,13,12,28,13.50
2014,04,13,12,29,13.50
2014,04,13,12,30,13.60
2014,04,13,12,31,13.70
2014,04,13,12,32,13.70
2014,04,13,12,33,13.80
2014,04,13,12,34,13.80
2014,04,13,12,35,13.80
2014,04,13,12,36,13.70
2014,04,13,12,37,13.70
2014,04,13,12,38,13.60
2014,04,13,12,39,13.60
2014,04,13,12,40,13.50
2014,04,13,12,41,13.50
2014,04,13,12,42,13.40
2014,04,13,12,43,13.50
2014,04,13,12,44,13.50
2014,04,13,12,45,13.50
2014,04,13,12,46,13.50
2014,04,13,12,47,13.60
2014,04,13,12,48,13.70
2014,04,13,12,49,13.80
2014,04,13,12,50,13.80
2014,04,13,12,51,13.80
2014,04,13,12,52,13.80
2014,04,13,12,53,13.90
2014,04,13,12,54,13.80
2014,04,13,12,55,13.70
2014,04,13,12,56,13.80
2014,04,13,12,57,13.80
2014,04,13,12,58,13.80
2014,04,13,12,59,13.90
2014,04,13,13,00,13.90
2014,04,13,13,01,14.00
2014,04,13,13,02,14.00
2014,04,13,13,03,14.00
2014,04,13,13,04,14.00
2014,04,13,13,05,14.00
2014,04,13,13,06,14.10
2014,04,13,13,07,14.10
2014,04,13,13,08,14.00
2014,04,13,13,09,14.00
2014,04,13,13,10,14.10
2014,04,13,13,11,14.10
2014,04,13,13,12,14.10
2014,04,13,13,13,14.20
2014,04,13,13,14,14.30
2014,04,13,13,15,14.30
2014,04,13,13,16,14.30
2014,04,13,13,17,14.30
2014,04,13,13,18,14.40
2014,04,13,13,19,14.50
2014,04,13,13,20,14.50
2014,04,13,13,21,14.50
2014,04,13,13,22,14.40
2014,04,13,13,23,14.30
2014,04,13,13,24,14.30
2014,04,13,13,25,14.20
2014,04,13,13,26,14.10
2014,04,13,13,27,14.10
2014,04,13,13,28,14.20
2014,04,13,13,29,14.30
2014,04,13,13,30,14.40
2014,04,13,13,31,14.40
2014,04,13,13,32,14.50
2014,04,13,13,33,14.60
2014,04,13,13,34,14.80
2014,04,13,13,35,14.90
2014,04,13,13,36,15.00
2014,04,13,13,37,15.00
2014,04,13,13,38,15.00
2014,04,13,13,39,15.00
2014,04,13,13,40,15.00
2014,04,13,13,41,15.00
2014,04,13,13,42,15.00
2014,04,13,13,43,15.00
2014,04,13,13,44,15.20
2014,04,13,13,45,15.20
2014,04,13,13,46,15.30
2014,04,13,13,47,15.40
2014,04,13,13,48,15.30
2014,04,13,13,49,15.30
2014,04,13,13,50,15.40
2014,04,13,13,51,15.40
2014,04,13,13,52,15.40
2014,04,13,13,53,15.40
2014,04,13,13,54,15.50
2014,04,13,13,55,15.40
2014,04,13,13,56,15.30
2014,04,13,13,57,15.30
2014,04,13,13,58,15.20
2014,04,13,13,59,15.10
2014,04,13,14,00,15.00
2014,04,13,14,01,15.10
2014,04,13,14,02,15.10
2014,04,13,14,03,15.20
2014,04,13,14,04,15.30
2014,04,13,14,05,15.40
2014,04,13,14,06,15.40
2014,04,13,14,07,15.40
2014,04,13,14,08,15.30
2014,04,13,14,09,15.30
2014,04,13,14,10,15.30
2014,04,13,14,11,15.30
2014,04,13,14,12,15.40
2014,04,13,14,13,15.40
2014,04,13,14,14,15.30
2014,04,13,14,15,15.20
2014,04,13,14,16,15.30
2014,04,13,14,17,15.40
2014,04,13,14,18,15.50
2014,04,13,14,19,15.50
2014,04,13,14,20,15.50
2014,04,13,14,21,15.40
2014,04,13,14,22,15.30
2014,04,13,14,23,15.30
2014,04,13,14,24,15.30
2014,04,13,14,25,15.30
2014,04,13,14,26,15.30
2014,04,13,14,27,15.40
2014,04,13,14,28,15.50
2014,04,13,14,29,15.70
2014,04,13,14,30,15.80
2014,04,13,14,31,15.80
2014,04,13,14,32,15.90
2014,04,13,14,33,15.90
2014,04,13,14,34,16.10
2014,04,13,14,35,16.20
2014,04,13,14,36,16.10
2014,04,13,14,37,16.10
2014,04,13,14,38,16.00
2014,04,13,14,39,15.90
2014,04,13,14,40,15.80
2014,04,13,14,41,15.80
2014,04,13,14,42,15.90
2014,04,13,14,43,15.90
2014,04,13,14,44,15.90
2014,04,13,14,45,15.80
2014,04,13,14,46,15.80
2014,04,13,14,47,15.80
2014,04,13,14,48,15.80
2014,04,13,14,49,15.80
2014,04,13,14,50,15.80
2014,04,13,14,51,15.90
2014,04,13,14,52,16.00
2014,04,13,14,53,16.00
2014,04,13,14,54,16.10
2014,04,13,14,55,16.20
2014,04,13,14,56,16.20
2014,04,13,14,57,16.20
2014,04,13,14,58,16.10
2014,04,13,14,59,16.00
2014,04,13,15,00,15.80
2014,04,13,15,01,15.80
2014,04,13,15,02,15.80
2014,04,13,15,03,15.80
2014,04,13,15,04,15.80
2014,04,13,15,05,15.80
2014,04,13,15,06,15.80
2014,04,13,15,07,15.90
2014,04,13,15,08,15.90
2014,04,13,15,09,16.00
2014,04,13,15,10,16.10
2014,04,13,15,11,16.10
2014,04,13,15,12,16.10
2014,04,13,15,13,16.00
2014,04,13,15,14,15.90
2014,04,13,15,15,15.80
2014,04,13,15,16,15.80
2014,04,13,15,17,15.80
2014,04,13,15,18,15.70
2014,04,13,15,19,15.80
2014,04,13,15,20,15.80
2014,04,13,15,21,15.90
2014,04,13,15,22,15.90
2014,04,13,15,23,15.90
2014,04,13,15,24,16.10
2014,04,13,15,25,16.20
2014,04,13,15,26,16.10
2014,04,13,15,27,16.00
2014,04,13,15,28,16.00
2014,04,13,15,29,16.00
2014,04,13,15,30,15.90
2014,04,13,15,31,15.90
2014,04,13,15,32,16.00
2014,04,13,15,33,16.00
2014,04,13,15,34,16.00
2014,04,13,15,35,16.10
2014,04,13,15,36,16.10
2014,04,13,15,37,16.10
2014,04,13,15,38,16.10
2014,04,13,15,39,16.20
2014,04,13,15,40,16.20
2014,04,13,15,41,16.10
2014,04,13,15,42,16.10
2014,04,13,15,43,16.10
2014,04,13,15,44,16.00
2014,04,13,15,45,16.00
2014,04,13,15,46,15.90
2014,04,13,15,47,15.90
2014,04,13,15,48,15.90
2014,04,13,15,49,15.90
2014,04,13,15,50,16.10
2014,04,13,15,51,16.10
2014,04,13,15,52,16.10
2014,04,13,15,53,16.10
2014,04,13,15,54,16.10
2014,04,13,15,55,16.10
2014,04,13,15,56,16.10
2014,04,13,15,57,16.20
2014,04,13,15,58,16.10
2014,04,13,15,59,16.20
2014,04,13,16,00,16.20
2014,04,13,16,01,16.20
2014,04,13,16,02,16.20
2014,04,13,16,03,16.20
2014,04,13,16,04,16.20
2014,04,13,16,05,16.10
2014,04,13,16,06,16.10
2014,04,13,16,07,16.10
2014,04,13,16,08,16.10
2014,04,13,16,09,16.20
2014,04,13,16,10,16.20
2014,04,13,16,11,16.20
2014,04,13,16,12,16.20
2014,04,13,16,13,16.20
2014,04,13,16,14,16.20
2014,04,13,16,15,16.20
2014,04,13,16,16,16.20
2014,04,13,16,17,16.20
2014,04,13,16,18,16.20
2014,04,13,16,19,16.20
2014,04,13,16,20,16.20
2014,04,13,16,21,16.20
2014,04,13,16,22,16.20
2014,04,13,16,23,16.20
2014,04,13,16,24,16.20
2014,04,13,16,25,16.20
2014,04,13,16,26,16.20
2014,04,13,16,27,16.20
2014,04,13,16,28,16.20
2014,04,13,16,29,16.20
2014,04,13,16,30,16.30
2014,04,13,16,31,16.30
2014,04,13,16,32,16.30
2014,04,13,16,33,16.30
2014,04,13,16,34,16.30
2014,04,13,16,35,16.30
2014,04,13,16,36,16.30
2014,04,13,16,37,16.40
2014,04,13,16,38,16.40
2014,04,13,16,39,16.30
2014,04,13,16,40,16.30
2014,04,13,16,41,16.30
2014,04,13,16,42,16.40
2014,04,13,16,43,16.40
2014,04,13,16,44,16.50
2014,04,13,16,45,16.40
2014,04,13,16,46,16.40
2014,04,13,16,47,16.40
2014,04,13,16,48,16.40
2014,04,13,16,49,16.40
2014,04,13,16,50,16.30
2014,04,13,16,51,16.30
2014,04,13,16,52,16.40
2014,04,13,16,53,16.40
2014,04,13,16,54,16.40
2014,04,13,16,55,16.40
2014,04,13,16,56,16.30
2014,04,13,16,57,16.30
2014,04,13,16,58,16.30
2014,04,13,16,59,16.30
2014,04,13,17,00,16.30
2014,04,13,17,01,16.30
2014,04,13,17,02,16.30
2014,04,13,17,03,16.30
2014,04,13,17,04,16.30
2014,04,13,17,05,16.30
2014,04,13,17,06,16.30
2014,04,13,17,07,16.20
2014,04,13,17,08,16.20
2014,04,13,17,09,16.20
2014,04,13,17,10,16.20
2014,04,13,17,11,16.20
2014,04,13,17,12,16.30
2014,04,13,17,13,16.30
2014,04,13,17,14,16.30
2014,04,13,17,15,16.40
2014,04,13,17,16,16.40
2014,04,13,17,17,16.40
2014,04,13,17,18,16.40
2014,04,13,17,19,16.40
2014,04,13,17,20,16.40
2014,04,13,17,21,16.40
2014,04,13,17,22,16.40
2014,04,13,17,23,16.40
2014,04,13,17,24,16.40
2014,04,13,17,25,16.40
2014,04,13,17,26,16.40
2014,04,13,17,27,16.40
2014,04,13,17,28,16.30
2014,04,13,17,29,16.30
2014,04,13,17,30,16.30
2014,04,13,17,31,16.30
2014,04,13,17,32,16.40
2014,04,13,17,33,16.40
2014,04,13,17,34,16.30
2014,04,13,17,35,16.30
2014,04,13,17,36,16.30
2014,04,13,17,37,16.20
2014,04,13,17,38,16.20
2014,04,13,17,39,16.10
2014,04,13,17,40,16.10